Location: Dompnac
(44.5644°N, 4.1026°E)
Time: 02:13:36
(UTC+00:00)

USA 234 - Pass Details

Date: 23 January 2021
Orbit: 1100 x 1107 km, 123.0° (Epoch: 01 March)

Event Time Altitude Azimuth Distance (km) Brightness Sun altitude
Exits shadow 21:48:43 11° 303° (WNW) 2,871 5.8 -53.4°
Drops below altitude 10° 21:48:52 11° 303° (WNW) 2,926 5.9 -53.5°
Sets 21:51:31 0° 308° (NW) 3,925 6.7 -53.9°
